Location: La Brionne
(46.1728°N, 1.7849°E)
Time: 13:04:19
(UTC+00:00)

Cosmos 2219 Rocket - Pass Details

Date: 25 October 2021
Orbit: 826 x 848 km, 71.0° (Epoch: 01 December)

Event Time Altitude Azimuth Distance (km) Brightness Sun altitude
Rises 19:36:30 0° 209° (SSW) 3,353 5.5 -29.5°
Reaches altitude 10° 19:38:55 10° 211° (SSW) 2,426 4.7 -29.9°
Enters shadow 19:42:54 48° 223° (SW) 1,075 2.8 -30.5°
